Tracking 30922 objects as of 2-Jul-2025
HD Live streaming from Space Station
objects crossing your sky now

STARLINK-32223

Track STARLINK-32223 now!
10-day predictions
STARLINK-32223 is classified as:


NORAD ID: 60373
Int'l Code: 2024-138U
Perigee: 481.6 km
Apogee: 483.1 km
Inclination: 53.2 °
Period: 94.1 minutes
Semi major axis: 6853 km
RCS: Unknown
Launch date: August 4, 2024
Source: United States (US)
Launch site: AIR FORCE WESTERN TEST RANGE (AFWTR)
Your satellite tracking list
FENGYUN 1C DEB
Track 1 satellite(s)




NASA's NSSDC Master Catalog

Two Line Element Set (TLE):
1 60373U 24138U   25182.86219451  .00000203  00000-0  18981-4 0  9997
2 60373  53.1611  34.7540 0001105  82.1363 277.9764 15.30191520 52120
Source of the keplerian elements: AFSPC